Weather History for Lorain / Elyria, OH

Change the Weather History Date:

Thursday, May 8, 2014

  Actual Average (KCLE) Record (KCLE)
Temperature  
Mean Temperature 74 °F 57 °F  
Max Temperature 88 °F 67 °F 88 °F (1889)
Min Temperature 60 °F 48 °F 30 °F (1976)
Degree Days  
Heating Degree Days 0 9  
Month to date heating degree days 76  
Since 1 July heating degree days 5587  
Cooling Degree Days 9 1  
Month to date cooling degree days 8  
Year to date cooling degree days 19  
Growing Degree Days 24 (Base 50)    
Moisture  
Dew Point 57 °F    
Average Humidity 55    
Maximum Humidity 75    
Minimum Humidity 39    
Precipitation  
Precipitation 0.00 in 0.11 in 0.76 in (1969)
Month to date precipitation 0.89  
Year to date precipitation 12.37  
Snow  
Snow 0.00 in 0.00 in - ()
Month to date snowfall 0.1  
Since 1 July snowfall 68.2  
Snow Depth -    
Sea Level Pressure  
Sea Level Pressure 29.98 in    
Wind  
Wind Speed 9 mph (SSW)    
Max Wind Speed 21 mph    
Max Gust Speed 26 mph    
Visibility 10 miles    
Events      
T = Trace of Precipitation, MM = Missing Value Source: NWS Daily Summary

Daily Weather History Graph

Daily Weather History Graph

Search for Another Location

Airport:

Trip Planner

Search our weather history database for the weather conditions in past years. The results will help you decide how hot, cold, wet, or windy it might be!

Date:

Astronomy

May. 08, 2014 Rise Set
Actual Time 6:17 AM EDT 8:33 PM EDT
Civil Twilight 5:46 AM EDT 9:04 PM EDT
Nautical Twilight 5:08 AM EDT 9:42 PM EDT
Astronomical Twilight 4:27 AM EDT 10:24 PM EDT
Moon 2:29 PM EDT (5/8) 2:52 AM EDT (5/8)
Length of Visible Light 15h 17m
Length of Day
14h 16m
Waxing Gibbous, 64% of the Moon is Illuminated
May 8
Waxing Gibbous
May 14
Full
May 21
Last Quarter
May 28
New
Jun 5
First Quarter

Hourly Weather History & Observations

Time (EDT) Temp. Heat Index Dew Point Humidity Pressure Visibility Wind Dir Wind Speed Gust Speed Precip Events Conditions
12:53 AM 64.9 °F - 54.0 °F 68% 29.98 in 10.0 mi ESE 5.8 mph - N/A   Mostly Cloudy
1:53 AM 64.9 °F - 53.1 °F 65% 29.97 in 10.0 mi SE 8.1 mph - N/A   Clear
2:53 AM 64.0 °F - 53.1 °F 67% 29.96 in 10.0 mi SSE 6.9 mph - N/A   Clear
3:53 AM 62.1 °F - 53.1 °F 72% 29.98 in 10.0 mi SSE 3.5 mph - N/A   Clear
4:53 AM 60.1 °F - 52.0 °F 75% 29.99 in 10.0 mi SW 8.1 mph - N/A   Clear
5:53 AM 61.0 °F - 52.0 °F 72% 29.99 in 10.0 mi South 5.8 mph - N/A   Clear
6:53 AM 61.0 °F - 52.0 °F 72% 30.01 in 10.0 mi South 6.9 mph - N/A   Clear
7:53 AM 64.9 °F - 54.0 °F 68% 30.01 in 10.0 mi South 8.1 mph - N/A   Clear
8:53 AM 71.1 °F - 55.0 °F 57% 30.02 in 10.0 mi SW 9.2 mph - N/A   Clear
9:53 AM 78.1 °F - 57.0 °F 48% 30.04 in 10.0 mi WSW 16.1 mph 21.9 mph N/A   Clear
10:53 AM 80.1 °F 80.6 °F 57.9 °F 47% 30.01 in 10.0 mi West 13.8 mph - N/A   Clear
11:53 AM 82.0 °F 82.1 °F 59.0 °F 45% 30.01 in 10.0 mi SW 12.7 mph - N/A   Clear
2:53 PM 86.0 °F 86.1 °F 61.0 °F 43% 29.96 in 10.0 mi WSW 19.6 mph 26.5 mph N/A   Partly Cloudy
3:53 PM 88.0 °F 87.9 °F 61.0 °F 40% 29.95 in 10.0 mi SW 19.6 mph 26.5 mph N/A   Scattered Clouds
4:53 PM 88.0 °F 87.6 °F 60.1 °F 39% 29.94 in 10.0 mi WSW 20.7 mph 26.5 mph N/A   Partly Cloudy
5:53 PM 87.1 °F 87.0 °F 61.0 °F 41% 29.94 in 10.0 mi WSW 16.1 mph 26.5 mph N/A   Scattered Clouds
6:53 PM 86.0 °F 86.1 °F 61.0 °F 43% 29.93 in 10.0 mi SW 16.1 mph - N/A   Clear
7:53 PM 84.0 °F 83.8 °F 59.0 °F 43% 29.93 in 10.0 mi WSW 12.7 mph - N/A   Clear
8:53 PM 79.0 °F - 57.9 °F 48% 29.96 in 10.0 mi SW 9.2 mph - N/A   Clear
9:53 PM 78.1 °F - 57.0 °F 48% 29.97 in 10.0 mi SSW 8.1 mph - N/A   Clear
10:53 PM 77.0 °F - 57.9 °F 52% 29.98 in 10.0 mi SSW 9.2 mph - N/A   Clear
11:53 PM 75.0 °F - 57.0 °F 53% 29.97 in 10.0 mi SSW 9.2 mph - N/A   Clear